PulseSat

PulseSat

MOLNIYA 3-27

Last updated on Dec. 7, 2018, 12:08 a.m. UTC

1 16393U 85117A   18340.33785241  .00000156  00000-0 -11322+0 0  9994
2 16393  64.6931 220.4696 6463547 265.6804 165.5066  2.12398570246815
UTC
Height (km)
Latitude
Longitude
Inclination
Orbital Period

Next 30 passes for location: Hong Kong

Rise time Rise Azimuth (degrees) Set time Set Azimuth (degrees) Duration Max altitude (degrees)

No matching passes for this satellites

PulseSat

PulseSat is the new satellites software and hardware trackering solution by Pulsely.
Satellite Two Line Element Set source: US Air Force Space Command

Download PulseSat for iOS
© 2017 Pulsely Limited